Preview of NWS' New Version of Forecast
This preview is not operational and should not be used for support decisions.

Regional Weather Roundup (RWR)

Issued by National Weather Service (NWS)

                            
000
ASUS46 KPQR 180610
RWROR 

OREGON REGIONAL WEATHER ROUNDUP
NATIONAL WEATHER SERVICE PORTLAND OR
1000 PM PST SUN FEB 17 2019

NOTE: "FAIR" INDICATES FEW OR NO CLOUDS BELOW 12,000 FEET WITH
NO SIGNIFICANT WEATHER AND/OR OBSTRUCTIONS TO VISIBILITY.

ORZ001>013-180700-
NORTHWEST OREGON

  
CITY           SKY/WX    TMP DP  RH WIND       PRES   REMARKS
ASTORIA        CLEAR     32  31  96 CALM      30.33R                  
6HR MIN TEMP:  32; 6HR MAX TEMP:  46;                                

TILLAMOOK      FOG       32  32 100 CALM      30.35R VSB 1/4          
NEWPORT        CLEAR     34  34 100 E6        30.35R                  
PORTLAND       PTCLDY    36  31  82 W3        30.33R                  
6HR MIN TEMP:  35; 6HR MAX TEMP:  43;                                

VANCOUVER WA   PTCLDY    31  29  92 CALM      30.32R                  
6HR MIN TEMP:  31; 6HR MAX TEMP:  43;                                

SCAPPOOSE      CLEAR     33  30  88 CALM      30.31R                  
6HR MIN TEMP:  33; 6HR MAX TEMP:  46;                                

HILLSBORO      CLEAR     30  29  96 CALM      30.31R                  
6HR MIN TEMP:  30; 6HR MAX TEMP:  42; 6HR PCP: TRACE;                

AURORA         CLOUDY    38  34  85 CALM      30.33R                  
6HR MIN TEMP:  37; 6HR MAX TEMP:  43;                                

MCMINNVILLE    CLEAR     32  30  92 N3        30.32R                  
6HR MIN TEMP:  30; 6HR MAX TEMP:  41;                                

SALEM          MOCLDY    33  30  88 CALM      30.31R                  
6HR MIN TEMP:  32; 6HR MAX TEMP:  44;                                

CORVALLIS      CLOUDY    35  33  92 W6        30.33R                  
EUGENE         CLEAR     31  28  89 NW6       30.32R                  
6HR MIN TEMP:  31; 6HR MAX TEMP:  45;                                

$$

ORZ021-028-180700-
SOUTHWEST OREGON

  
CITY           SKY/WX    TMP DP  RH WIND       PRES   REMARKS
NORTH BEND     CLEAR     34  34 100 SE3       30.35R                  
6HR MIN TEMP:  34; 6HR MAX TEMP:  46; 6HR PCP: TRACE;                

BROOKINGS      CLEAR     38  30  73 VRB3      30.26R                  
ROSEBURG       CLEAR     33  31  92 CALM      30.30R                  
6HR MIN TEMP:  33; 6HR MAX TEMP:  46;                                

SEXTON SUMMIT  PTCLDY    24  23  96 N9        30.14R                  
6HR MIN TEMP:  24; 6HR MAX TEMP:  28; 6HR PCP: TRACE;                

GRANTS PASS    FAIR      30  28  93 CALM      30.29                   
MEDFORD        CLOUDY    35  28  75 CALM      30.24R                  
6HR MIN TEMP:  35; 6HR MAX TEMP:  44;                                

$$

ORZ014>016-041-180700-
COLUMBIA GORGE

  
CITY           SKY/WX    TMP DP  RH WIND       PRES   REMARKS
TROUTDALE      CLOUDY    39  33  79 CALM      30.32R                  
6HR MIN TEMP:  39; 6HR MAX TEMP:  43;                                

HOOD RIVER     CLOUDY    36  32  87 N3        30.29R                  
THE DALLES     MIX PCPN  34  31  88 SW3       30.31R                  
6HR MIN TEMP:  32; 6HR MAX TEMP:  35; 6HR PCP:  0.02;                

$$

ORZ029>031-041-044-049-050-061>064-502-503-505>511-180700-
EASTERN OREGON

  
CITY           SKY/WX    TMP DP  RH WIND       PRES   REMARKS
MADRAS         NOT AVBL                                               
REDMOND        CLOUDY    31  24  75 NW6       30.15R                  
6HR MIN TEMP:  28; 6HR MAX TEMP:  38;                                

BEND           MOCLDY    30  23  74 W3        30.14R                  
PRINEVILLE     CLOUDY    30  23  74 CALM      30.14                   
KLAMATH FALLS  PTCLDY    24  18  77 NW8       30.09R                  
6HR MIN TEMP:  22; 6HR MAX TEMP:  33;                                

LAKEVIEW       FLURRIES  12  10  92 NW5       30.06R                  
HERMISTON      CLOUDY    33  29  85 SW3       30.27R                  
6HR MIN TEMP:  32; 6HR MAX TEMP:  36; 6HR PCP: TRACE;                

PENDLETON      CLOUDY    30  29  96 NW12      30.22R FOG     WCI  20  
6HR MIN TEMP:  30; 6HR MAX TEMP:  32; 6HR PCP: TRACE;                

JOHN DAY       CLOUDY    28  23  80 NW6       30.10                   
MEACHAM        LGT SNOW  23  20  88 CALM      30.08S FOG              
6HR MIN TEMP:  23; 6HR MAX TEMP:  24; 6HR PCP:  0.01;                

LA GRANDE      CLOUDY    28  24  85 NW15      30.14R WCI  16          
6HR MIN TEMP:  28; 6HR MAX TEMP:  31; 6HR PCP: TRACE;                

BAKER CITY     CLEAR     28  21  75 NW15      30.07R WCI  16          
6HR MIN TEMP:  28; 6HR MAX TEMP:  36;                                

BURNS          PTCLDY    22  16  78 W7        30.05R                  
6HR MIN TEMP:  22; 6HR MAX TEMP:  32;                                

ROME             N/A     24  21  88 SE6       30.00R                  
6HR MIN TEMP:  21; 6HR MAX TEMP:  31; 6HR PCP:  0.01;                

ONTARIO        CLEAR     33  22  63 NW17      30.08R WCI  22          
6HR MIN TEMP:  33; 6HR MAX TEMP:  44;                                

$$